Flag Weather past 2 weeks in Clarksville, Tennessee, U.S.A.

Now
50 °F

Cloudy.


Feels Like: 44 °F
Forecast: 34 / 49 °F
Wind: 16 mph from North

Location: Outlaw Field

Current Time: Oct 31, 2014 at 1:48:05 PM

Latest Report: Oct 31, 2014 at 12:52 PM


Visibility: 10 mi

Pressure: 30.05 "Hg

Humidity: 71%

Dew point: 41 °F

Location of ClarksvilleLocation

Historic Weather in Clarksville — Graph

°F

Clarksville temperature yesterday

Maximum temperature yesterday: 62 °F (at 3:52 PM)
Minimum temperature yesterday: 35 °F (at 6:52 AM)
Average temperature yesterday: 49 °F

Past Weeks' High & Low Weather Summary

 TemperatureHumidityPressure
High81 °F (Oct 26, 3:52 PM)100% (Oct 20, 4:52 AM)30.29 "Hg (Oct 20, 4:52 AM)
Low35 °F (Oct 30, 6:52 AM)37% (Oct 24, 1:52 PM)29.80 "Hg (Oct 17, 1:52 PM)
Average57 °F76%30.05 "Hg
* Reported Oct 16 12:52 PM — Oct 31 12:52 PM, Clarksville, Weather by CustomWeather, © 2014

Note: Actual official high and low records may vary slightly from our data, if they occured in-between our weather recording intervals... More about our weather records

Advertising

Clarksville weather history for previous 24 hours

 ConditionsComfort  
Time TempWeatherWind HumidityBarometerVisibility
12:52 PM
Oct 31
50 °FCloudy.16 mph71%30.05 "Hg10 mi
11:52 AM51 °FMostly cloudy.13 mph80%30.05 "Hg10 mi
10:52 AM50 °FMore clouds than sun.12 mph83%30.06 "Hg10 mi
9:52 AM50 °FMostly cloudy.9 mph83%30.06 "Hg9 mi
8:52 AM50 °FOvercast.6 mph89%30.04 "Hg9 mi
7:52 AM49 °FMostly cloudy.5 mph93%30.03 "Hg10 mi
6:52 AM49 °FMostly cloudy.3 mph93%30.01 "Hg10 mi
5:52 AM50 °FLight rain. Mostly cloudy.6 mph89%30.00 "Hg7 mi
4:52 AM50 °FLight rain. Overcast.5 mph86%29.99 "Hg10 mi
3:52 AM50 °FOvercast.5 mph86%29.99 "Hg10 mi
2:52 AM50 °FLight rain. Overcast.3 mph86%30.00 "Hg10 mi
1:52 AM50 °FOvercast.3 mph86%30.00 "Hg10 mi
12:52 AM50 °FOvercast.3 mph86%30.02 "Hg10 mi
11:52 PM
Oct 30
51 °FLight rain. Mostly cloudy.No wind77%30.03 "Hg10 mi
10:52 PM50 °FOvercast.No wind83%30.03 "Hg10 mi
9:52 PM51 °FPassing clouds.No wind71%30.04 "Hg10 mi
8:52 PM51 °FOvercast.No wind74%30.04 "Hg10 mi
7:52 PM52 °FPassing clouds.No wind66%30.05 "Hg10 mi
6:52 PM51 °FClear.No wind61%30.05 "Hg10 mi
5:52 PM57 °FSunny.No wind47%30.04 "Hg10 mi
4:52 PM60 °FSunny.5 mph41%30.05 "Hg10 mi
3:52 PM62 °FSunny.7 mph41%30.06 "Hg10 mi
2:52 PM61 °FSunny.N/A41%30.07 "Hg10 mi
1:52 PM59 °FSunny.5 mph46%30.09 "Hg10 mi
Weather by CustomWeather, © 2014

See weather overviewHow to use our weather pages